Regional Weather Roundup
Issued by NWS

Home | Current Version | Previous Version | Text Only | Print | Product List | Glossary Off
Versions: 1 2 3 4 5 6 7 8 9 10 11 12 13 14 15 16 17 18 19 20 21 22 23 24 25 26 27 28 29 30 31 32 33 34 35 36 37 38 39 40 41 42 43 44 45 46 47 48 49 50

000
ASUS43 KMPX 250601
RWRMN
WEATHER ROUNDUP FOR MINNESOTA
NATIONAL WEATHER SERVICE TWIN CITIES/CHANHASSEN MN
100 AM CDT SAT MAR 25 2017


NOTE: "FAIR" INDICATES FEW OR NO CLOUDS BELOW 12,000 FEET WITH NO
SIGNIFICANT WEATHER AND/OR OBSTRUCTIONS TO VISIBILITY. N/A MEANS
CURRENT SKY AND/OR WEATHER CONDITIONS ARE NOT AVAILABLE.

MNZ060>063-068>070-250700-
   Twin Cities Metro

CITY           SKY/WX    TMP DP  RH WIND       PRES   REMARKS
TWIN CITIES    CLOUDY    39  31  72 NE9       30.19R
6HR MIN TEMP:  39; 6HR MAX TEMP:  42;

ST PAUL        CLOUDY    39  33  79 NE7       30.20R
CRYSTAL        CLOUDY    38  30  73 NE7       30.19R
BLAINE         CLOUDY    39  36  87 NE6       30.20R
LAKEVILLE      CLOUDY    36  34  93 NE7       30.16S
EDEN PRAIRIE   CLOUDY    40  33  76 NE7       30.17R
6HR MIN TEMP:  40; 6HR MAX TEMP:  42;

SOUTH ST PAUL  CLOUDY    39  32  77 NE5       30.18R
LAKE ELMO      CLOUDY    37  34  87 NE6       30.19R
$$
MNZ001>005-007-008-013>017-022>024-027-028-250700-
   Northwest Minnesota

CITY           SKY/WX    TMP DP  RH WIND       PRES   REMARKS
BEMIDJI        CLOUDY    34  29  80 E5        30.21S WCI  30
HALLOCK        PTCLDY    30  28  93 CALM      30.23S
ROSEAU         CLEAR     28  25  86 NE3       30.22F
WARROAD        CLEAR     30  27  86 NE6       30.23F WCI  24
CROOKSTON      CLEAR     30  28  93 CALM      30.22F
FOSSTON        CLEAR     25  25 100 CALM      30.21S
DETROIT LAKES  PTCLDY    32  30  93 CALM      30.22R
MOORHEAD       CLEAR     30  28  93 CALM      30.23R
PARK RAPIDS    CLOUDY    37  27  67 E8        30.20R
MAHNOMEN       FAIR      30  28  92 SE3       30.21R
$$
MNZ006-009>011-018-025>026-250700-
   North Central Minnesota

CITY           SKY/WX    TMP DP  RH WIND       PRES   REMARKS
BAUDETTE       CLEAR     28  23  81 E7        30.22F WCI  21
FLAG ISLAND    CLEAR     30  25  80 E3        30.23S
INTL FALLS     CLOUDY    34  27  75 E5        30.24S WCI  30
6HR MIN TEMP:  34; 6HR MAX TEMP:  38;

WASKISH        MOCLDY    34  28  80 E6        30.23S WCI  29
BIG FORK       CLOUDY    34  28  80 CALM      30.23R
LONGVILLE      CLOUDY    34  30  86 CALM      30.22R
GRAND RAPIDS   CLOUDY    34  30  85 CALM      30.24R
CRANE LAKE     CLOUDY    32  28  86 CALM      30.27R
ORR            CLOUDY    34  27  75 CALM      30.22R
COOK           CLOUDY    34  30  86 CALM      30.24R
WALKER         CLOUDY    34  30  86 CALM      30.22R
$$
MNZ012-019>021-037-250700-
   Northeast Minnesota

CITY           SKY/WX    TMP DP  RH WIND       PRES   REMARKS
DULUTH         CLOUDY    33  31  92 E13       30.22S WCI  24
6HR MIN TEMP:  33; 6HR MAX TEMP:  35; 6HR PCP: TRACE;

ELY            CLOUDY    32  30  93 SE5       30.24R WCI  27
HIBBING        CLOUDY    32  31  96 E6        30.22S WCI  26
EVELETH        CLOUDY    32  29  89 E3        30.23S
DULUTH HARBOR  CLOUDY    34  34 100 NE15      30.25S WCI  24
TWO HARBORS    CLOUDY    36  30  80 NE8       30.23R
SILVER BAY     CLOUDY    34  32  93 E6        30.24R WCI  29
G MARAIS ARPRT CLOUDY    28  19  69 NE8       30.24R WCI  20
$$
MNZ029>031-032-039>041-046>048-054>057-064-250700-
   West Central Minnesota

CITY           SKY/WX    TMP DP  RH WIND       PRES   REMARKS
FERGUS FALLS   CLEAR     30  28  93 CALM      30.25S
WHEATON        CLEAR     30  28  93 CALM      30.23R FOG
MORRIS         MOCLDY    32  30  93 E6        30.19S WCI  26
ALEXANDRIA     MOCLDY    35  30  82 E7        30.20R WCI  29
ELBOW LAKE     FAIR      31  29  94 CALM      30.21R
WADENA         CLOUDY    36  28  75 E3        30.20R
GLENWOOD       CLOUDY    36  30  80 E8        30.20R
APPLETON       CLOUDY    36  30  80 CALM      30.20R
BENSON         CLOUDY    37  30  75 CALM      30.22R
ORTONVILLE     MOCLDY    34  30  86 E5        30.19F WCI  30
MADISON        CLOUDY    36  36 100 NE3       30.19S
WILLMAR        CLOUDY    37  34  87 E9        30.21R
$$
MNZ033>034-036-042>043-049>051-058-059-250700-
   Central Minnesota

CITY           SKY/WX    TMP DP  RH WIND       PRES   REMARKS
ST CLOUD       CLOUDY    36  32  85 NE5       30.20R
6HR MIN TEMP:  36; 6HR MAX TEMP:  39;

SAUK CENTRE    CLOUDY    36  31  83 E6        30.20R
PAYNESVILLE      N/A     37  32  81 E7        30.20R
AITKIN         CLOUDY    37  30  75 CALM      30.21R
PINE RIVER     CLOUDY    36  30  80 NE3       30.25R
BRAINERD       CLOUDY    36  31  82 NE5       30.22R
STAPLES        CLOUDY    36  28  75 E3        30.21R
LONG PRAIRIE   FAIR      32  28  86 CALM      30.20R
LITTLE FALLS   CLEAR     34  30  86 CALM      30.22R
LITCHFIELD     CLOUDY    37  34  87 NE7       30.20R
BUFFALO        CLOUDY    37  32  82 NE7       30.22R
MAPLE LAKE     CLOUDY    37  34  87 NE6       30.22R
HUTCHINSON     CLOUDY    37  34  88 NE8       30.20R
$$
MNZ037-044-045-052-053-250700-
   East Central Minnesota

CITY           SKY/WX    TMP DP  RH WIND       PRES   REMARKS
PRINCETON      CLOUDY    37  32  81 E7        30.22R
MORA           CLOUDY    32  30  93 E3        30.24R
CAMBRIDGE      CLOUDY    39  28  65 N5        30.21R
RUSH CITY      CLOUDY    36  30  80 NE5       30.23R
MOOSE LAKE     CLOUDY    34  32  93 NE3       30.21R
HINCKLEY       CLOUDY    32  32 100 CALM      30.23R
CLOQUET        CLOUDY    34  30  86 E9        30.22R WCI  26
MCGREGOR       CLOUDY    34  32  93 E6        30.22R WCI  29
$$
MNZ071>073-080-081-089-090-097-098-250700-
   Southwest Minnesota

CITY           SKY/WX    TMP DP  RH WIND       PRES   REMARKS
MONTEVIDEO     CLOUDY    36  34  93 SE5       30.21S
GRANITE FALLS  CLOUDY    38  34  84 NE8       30.21R
CANBY          CLOUDY    35  34  96 CALM      30.20R
MARSHALL       CLOUDY    36  32  85 NE9       30.17S
REDWOOD FALLS  CLOUDY    38  32  79 NE7       30.17R
OLIVIA         CLOUDY    36  32  87 NE6       30.18S
PIPESTONE      CLOUDY    34  30  86 E8        30.10F FOG     WCI  27
WINDOM         CLOUDY    36  36 100 NE14      30.12F FOG
WORTHINGTON    CLOUDY    35  34  96 NE16      30.12S FOG     WCI  25
JACKSON        CLOUDY    36  34  93 NE14      30.10F FOG
TRACY          CLOUDY    36  34  94 NE8       30.14F
SLAYTON        CLOUDY    33  33  99 NE9G17    30.12F FOG     WCI  25
$$
MNZ065>067-074>077-082>085-091>093-250700-
   South Central Minnesota

CITY           SKY/WX    TMP DP  RH WIND       PRES   REMARKS
MANKATO        CLOUDY    38  35  89 NE13      30.13F
NEW ULM        CLOUDY    37  34  87 NE8       30.14F
ST JAMES       CLOUDY    37  36  93 NE9       30.13F
FAIRMONT       CLOUDY    39  36  89 NE13      30.10F
GLENCOE        CLOUDY    38  36  91 NE5       30.18R
FARIBAULT      CLOUDY    37  36  93 NE6       30.15S
OWATONNA       CLOUDY    37  34  87 NE10      30.12F
WASECA         CLOUDY    37  34  87 NE10      30.13F
ALBERT LEA     CLOUDY    37  36  93 NE15      30.08F FOG
$$
MNZ078>079-086>088-094>096-250700-
   Southeast Minnesota

CITY           SKY/WX    TMP DP  RH WIND       PRES   REMARKS
ROCHESTER      CLOUDY    37  36  96 E12       30.12R
6HR MIN TEMP:  37; 6HR MAX TEMP:  39; 6HR PCP: TRACE;

RED WING       CLOUDY    39  32  75 E6        30.16R
STANTON        CLOUDY    38  35  87 NE7       30.15R
DODGE CENTER   CLOUDY    37  36  93 NE9       30.11F
WINONA         DRIZZLE   39  36  87 E6        30.16R
AUSTIN         CLOUDY    37  36  93 NE12      30.09F FOG
PRESTON        CLOUDY    37  35  94 NE10      30.11F
$$
ABBREVIATIONS USED IN REMARKS
   TC - TEMPERATURES IN CELSIUS
  WCI - WIND CHILL INDEX
   HX - HEAT INDEX
  VSB - VISIBILITY
$$



USA.gov is the U.S. government's official web portal to all federal, state and local government web resources and services.